�N����,����,�~����,�C��,���x,�C��,����,���ϕ���,�ő�u�ԕ���,�ő厞����,���˗�,�I�_���x,�n�����x,�ő啗���N��,DTYPE
"21/07/24","00:10",0.0,25.4,84.4,1005.0,304.8,1.0,1.8,293.4,0.00,22.6,27.0,"00:05:04",1
"21/07/24","00:20",0.0,25.3,84.8,1005.0,310.2,0.7,1.2,332.1,0.00,22.6,27.1,"00:10:56",1
"21/07/24","00:30",0.0,25.1,85.0,1005.0,325.1,0.2,0.9,322.4,0.00,22.4,27.0,"00:29:04",1
"21/07/24","00:40",0.0,25.1,85.5,1005.0,336.7,0.8,1.6,334.7,0.00,22.5,27.1,"00:38:00",1
"21/07/24","00:50",0.0,25.0,86.0,1005.0,300.2,0.7,1.2,349.4,0.00,22.5,27.1,"00:40:08",1
"21/07/24","01:00",0.0,25.0,86.5,1005.2,309.3,1.1,1.9,334.0,0.00,22.6,27.0,"00:56:40",1
"21/07/24","01:10",0.0,25.1,86.7,1005.0,313.6,1.0,1.3,302.7,0.00,22.8,26.9,"01:01:04",1
"21/07/24","01:20",0.0,24.9,86.9,1005.2,268.6,0.5,0.8,289.7,0.00,22.6,27.1,"01:10:08",1
"21/07/24","01:30",0.0,24.9,87.1,1005.0,268.9,0.7,1.1,263.8,0.00,22.6,26.7,"01:23:44",1
"21/07/24","01:40",0.0,24.9,87.3,1005.0,281.1,0.7,1.1,265.3,0.00,22.7,26.9,"01:32:24",1
"21/07/24","01:50",0.0,24.7,87.4,1005.5,268.4,0.6,1.0,252.6,0.00,22.5,26.8,"01:43:20",1
"21/07/24","02:00",0.0,24.6,87.6,1005.2,288.4,0.7,1.1,287.6,0.00,22.4,26.7,"01:52:32",1
"21/07/24","02:10",0.0,24.6,87.7,1005.2,311.1,0.8,1.4,339.7,0.00,22.5,26.8,"02:07:28",1
"21/07/24","02:20",0.0,24.4,87.9,1005.5,312.8,0.7,1.1,343.7,0.00,22.3,26.7,"02:10:24",1
"21/07/24","02:30",0.0,24.3,88.2,1005.5,296.7,0.7,1.2,308.9,0.00,22.3,26.7,"02:21:20",1
"21/07/24","02:40",0.0,24.2,88.4,1005.7,318.0,0.6,1.0,334.4,0.00,22.2,26.7,"02:32:00",1
"21/07/24","02:50",0.0,24.1,88.6,1005.2,324.4,0.7,1.3,334.6,0.00,22.1,26.6,"02:43:44",1
"21/07/24","03:00",0.0,24.0,88.9,1005.5,305.9,0.3,0.9,262.2,0.00,22.1,26.4,"02:53:28",1
"21/07/24","03:10",0.0,24.1,89.0,1005.5,310.5,0.6,1.1,262.5,0.00,22.2,26.4,"03:05:12",1
"21/07/24","03:20",0.0,24.2,89.3,1005.5,294.8,0.7,1.4,325.4,0.00,22.4,26.4,"03:16:32",1
"21/07/24","03:30",0.0,24.2,89.4,1005.2,292.3,1.0,1.6,327.8,0.00,22.4,26.4,"03:21:04",1
"21/07/24","03:40",0.0,24.2,89.6,1005.5,279.8,1.0,1.8,294.7,0.00,22.4,26.2,"03:30:48",1
"21/07/24","03:50",0.0,24.0,89.7,1005.5,325.9,0.8,1.4,345.5,0.00,22.2,26.3,"03:42:56",1
"21/07/24","04:00",0.0,23.8,89.8,1006.0,292.1,0.6,1.4,307.8,0.00,22.1,26.3,"03:51:12",1
"21/07/24","04:10",0.0,23.6,90.0,1005.7,334.2,0.3,0.9,329.9,0.00,21.9,26.2,"04:03:12",1
"21/07/24","04:20",0.0,23.3,90.1,1005.7,316.4,0.8,1.1,318.5,0.00,21.6,26.2,"04:13:36",1
"21/07/24","04:30",0.0,23.3,90.3,1005.7,308.4,0.8,1.0,311.4,0.00,21.7,26.2,"04:24:16",1
"21/07/24","04:40",0.0,23.2,90.5,1005.7,288.4,0.7,1.2,311.5,0.00,21.6,26.2,"04:38:08",1
"21/07/24","04:50",0.0,23.2,90.6,1005.7,306.7,0.8,1.4,318.0,0.00,21.6,26.2,"04:49:44",1
"21/07/24","05:00",0.0,23.1,90.7,1005.7,320.1,0.8,1.6,302.1,0.00,21.5,26.1,"04:52:24",1
"21/07/24","05:10",0.0,23.0,90.8,1006.0,314.2,0.8,1.2,334.9,0.00,21.5,26.2,"05:01:36",1
"21/07/24","05:20",0.0,22.8,91.1,1005.7,310.9,0.6,1.0,313.1,0.00,21.3,26.0,"05:17:44",1
"21/07/24","05:30",0.0,22.8,91.3,1006.2,318.2,0.8,1.3,332.5,0.00,21.3,25.9,"05:25:20",1
"21/07/24","05:40",0.0,22.8,91.4,1006.0,330.1,1.2,1.6,324.0,0.00,21.4,25.8,"05:33:52",1
"21/07/24","05:50",0.0,22.7,91.6,1006.2,318.4,1.0,1.6,338.0,0.00,21.3,25.8,"05:42:32",1
"21/07/24","06:00",0.0,22.7,91.7,1006.0,310.0,0.6,1.1,300.9,0.00,21.3,25.9,"05:50:08",1
"21/07/24","06:10",0.0,22.8,91.8,1006.2,331.4,0.8,1.2,354.4,0.00,21.4,25.8,"06:08:48",1
"21/07/24","06:20",0.0,23.1,91.9,1006.2,315.7,1.0,1.2,338.7,0.01,21.8,25.9,"06:19:20",1
"21/07/24","06:30",0.0,23.7,91.9,1006.0,341.7,0.8,1.4,341.7,0.03,22.3,25.8,"06:28:16",1
"21/07/24","06:40",0.0,24.8,91.8,1006.2,339.4,0.6,1.3,358.2,0.04,23.4,25.6,"06:30:56",1
"21/07/24","06:50",0.0,25.6,91.5,1006.4,323.2,0.5,1.0,338.3,0.06,24.2,25.7,"06:45:04",1
"21/07/24","07:00",0.0,26.1,91.0,1006.0,7.5,0.2,0.8,339.7,0.08,24.6,25.8,"06:52:24",1
"21/07/24","07:10",0.0,25.8,89.1,1006.0,352.6,0.5,1.1,358.2,0.10,23.9,25.7,"07:08:16",1
"21/07/24","07:20",0.0,26.5,87.3,1006.0,10.3,0.6,1.1,345.5,0.13,24.3,25.8,"07:10:16",1
"21/07/24","07:30",0.0,27.1,83.8,1005.7,8.4,0.6,1.0,347.3,0.15,24.2,25.7,"07:25:28",1
"21/07/24","07:40",0.0,27.8,78.8,1005.2,348.6,0.5,1.1,352.7,0.17,23.8,25.6,"07:32:00",1
"21/07/24","07:50",0.0,29.0,72.8,1005.7,21.7,0.6,1.1,55.3,0.20,23.7,25.7,"07:43:28",1
"21/07/24","08:00",0.0,29.5,67.5,1005.5,38.2,0.6,1.2,345.0,0.22,22.9,25.7,"07:59:04",1
"21/07/24","08:10",0.0,29.5,66.3,1005.7,327.8,0.7,1.6,350.9,0.25,22.6,25.7,"08:08:24",1
"21/07/24","08:20",0.0,30.0,64.2,1006.0,81.2,0.5,1.4,40.7,0.27,22.5,25.7,"08:10:24",1
"21/07/24","08:30",0.0,30.7,61.7,1006.2,115.8,0.8,1.9,126.1,0.30,22.5,25.7,"08:28:16",1
"21/07/24","08:40",0.0,31.0,60.4,1006.4,111.6,0.7,2.0,140.8,0.32,22.5,25.9,"08:33:52",1
"21/07/24","08:50",0.0,31.3,58.1,1006.7,72.6,0.8,1.9,29.3,0.34,22.1,26.0,"08:42:08",1
"21/07/24","09:00",0.0,31.4,56.7,1006.4,100.8,0.8,2.8,129.8,0.36,21.8,25.9,"08:59:44",1
"21/07/24","09:10",0.0,31.7,54.8,1006.7,95.8,0.7,1.9,91.2,0.39,21.5,25.9,"09:03:20",1
"21/07/24","09:20",0.0,32.1,53.5,1006.9,81.0,1.0,2.6,355.7,0.40,21.5,25.8,"09:17:44",1
"21/07/24","09:30",0.0,32.3,52.4,1007.1,110.0,0.8,2.1,125.7,0.42,21.4,26.0,"09:24:32",1
"21/07/24","09:40",0.0,32.0,52.8,1007.4,150.0,1.2,2.2,174.3,0.44,21.2,26.2,"09:32:08",1
"21/07/24","09:50",0.0,32.6,51.8,1007.1,77.2,0.8,2.2,10.6,0.46,21.4,26.2,"09:47:20",1
"21/07/24","10:00",0.0,32.6,49.4,1007.1,106.6,1.0,2.2,230.6,0.47,20.7,26.3,"09:58:00",1
"21/07/24","10:10",0.0,32.7,48.3,1007.1,186.0,1.1,2.2,179.8,0.49,20.4,26.2,"10:01:44",1
"21/07/24","10:20",0.0,33.3,48.7,1007.1,143.8,0.8,1.9,138.5,0.50,21.1,26.3,"10:14:40",1
"21/07/24","10:30",0.0,33.5,48.8,1007.4,141.6,1.1,2.5,118.0,0.51,21.3,26.4,"10:25:20",1
"21/07/24","10:40",0.0,33.1,50.1,1007.6,174.1,1.5,4.0,212.7,0.52,21.4,26.6,"10:38:00",1
"21/07/24","10:50",0.0,33.0,51.3,1007.1,191.9,1.7,3.7,224.2,0.53,21.7,26.5,"10:46:40",1
"21/07/24","11:00",0.0,33.9,50.5,1006.9,137.5,0.8,1.8,193.1,0.54,22.2,26.7,"10:54:24",1
"21/07/24","11:10",0.0,33.2,49.0,1006.9,175.9,2.0,4.2,134.0,0.55,21.1,26.6,"11:02:08",1
"21/07/24","11:20",0.0,33.7,47.5,1006.7,180.3,1.5,3.7,207.2,0.56,21.0,26.7,"11:18:32",1
"21/07/24","11:30",0.0,33.6,49.1,1006.2,208.9,1.7,4.9,215.7,0.56,21.5,26.8,"11:29:12",1
"21/07/24","11:40",0.0,33.8,47.7,1006.7,193.2,1.8,4.3,216.1,0.58,21.2,26.9,"11:30:08",1
"21/07/24","11:50",0.0,34.0,51.1,1006.2,183.3,1.6,3.4,123.6,0.57,22.5,27.0,"11:44:56",1
"21/07/24","12:00",0.0,34.7,50.2,1006.2,137.7,1.1,2.1,128.3,0.59,22.9,27.1,"11:51:20",1
"21/07/24","12:10",0.0,33.7,47.9,1005.7,158.5,0.8,1.9,243.7,0.24,21.2,27.1,"12:05:12",1
"21/07/24","12:20",0.0,33.6,52.0,1005.5,53.0,1.0,2.6,354.4,0.34,22.4,27.2,"12:16:56",1
"21/07/24","12:30",0.0,34.2,50.4,1005.2,128.5,1.1,2.7,93.9,0.40,22.5,27.2,"12:24:40",1
"21/07/24","12:40",0.0,34.7,49.9,1005.7,125.3,1.2,2.9,135.3,0.56,22.8,27.4,"12:39:12",1
"21/07/24","12:50",0.0,35.5,48.4,1005.2,64.3,1.0,3.1,136.7,0.60,23.0,27.3,"12:41:28",1
"21/07/24","13:00",0.0,36.0,47.0,1005.7,83.4,1.0,2.7,156.5,0.60,22.9,27.4,"12:54:32",1
"21/07/24","13:10",0.0,35.7,44.9,1005.7,72.6,1.5,3.2,119.2,0.62,21.9,27.5,"13:04:00",1
"21/07/24","13:20",0.0,36.0,45.9,1006.0,90.3,1.2,2.7,151.3,0.61,22.6,27.4,"13:16:00",1
"21/07/24","13:30",0.0,35.8,46.7,1005.7,132.2,1.5,3.1,96.6,0.55,22.7,27.5,"13:24:56",1
"21/07/24","13:40",0.0,36.3,45.8,1005.5,140.9,1.1,2.8,119.8,0.59,22.8,27.8,"13:37:36",1
"21/07/24","13:50",0.0,35.9,46.0,1005.7,169.5,1.3,2.7,155.9,0.60,22.5,27.7,"13:46:16",1
"21/07/24","14:00",0.0,35.5,47.3,1005.7,139.0,1.3,2.8,119.9,0.45,22.6,27.7,"13:52:48",1
"21/07/24","14:10",0.0,35.7,47.3,1005.5,131.0,1.2,3.6,138.6,0.47,22.8,27.8,"14:01:20",1
"21/07/24","14:20",0.0,35.3,46.9,1005.2,96.2,1.2,4.1,93.0,0.32,22.3,27.9,"14:19:52",1
"21/07/24","14:30",0.0,35.7,47.8,1005.2,101.4,1.0,2.2,24.2,0.48,23.0,28.0,"14:20:08",1
"21/07/24","14:40",0.0,34.6,46.4,1004.8,89.4,1.1,2.5,30.6,0.12,21.5,27.9,"14:34:00",1
"21/07/24","14:50",0.0,34.3,47.5,1004.5,107.4,0.8,2.4,133.0,0.24,21.6,28.0,"14:44:00",1
"21/07/24","15:00",0.0,33.9,52.1,1004.3,127.1,1.5,4.7,129.5,0.16,22.7,28.1,"14:53:20",1
"21/07/24","15:10",0.0,33.9,49.8,1004.5,118.8,1.1,2.8,120.3,0.18,22.0,28.0,"15:00:32",1
"21/07/24","15:20",0.0,35.1,49.1,1003.8,103.8,1.1,3.1,140.5,0.38,22.9,28.2,"15:18:40",1
"21/07/24","15:30",0.0,35.3,46.0,1004.1,91.8,1.0,2.7,14.9,0.27,22.0,28.1,"15:21:36",1
"21/07/24","15:40",0.0,34.5,48.7,1003.6,22.3,0.7,1.8,60.6,0.10,22.2,28.0,"15:33:44",1
"21/07/24","15:50",0.0,33.8,51.3,1003.6,107.4,1.0,2.6,102.7,0.13,22.4,28.1,"15:47:28",1
"21/07/24","16:00",0.0,34.1,52.1,1003.1,60.6,0.7,1.8,32.0,0.16,22.9,28.1,"15:52:00",1
"21/07/24","16:10",0.0,33.9,50.9,1003.4,134.3,0.8,2.1,174.4,0.08,22.3,28.1,"16:08:48",1
"21/07/24","16:20",0.0,33.1,52.7,1003.1,156.2,1.3,3.6,206.4,0.05,22.2,28.2,"16:12:00",1
"21/07/24","16:30",0.0,33.2,53.4,1002.9,126.5,0.5,1.4,114.9,0.09,22.5,28.3,"16:23:44",1
"21/07/24","16:40",0.0,34.6,51.8,1003.1,98.6,0.6,1.9,83.8,0.26,23.3,28.3,"16:39:12",1
"21/07/24","16:50",0.0,34.6,49.7,1003.6,116.2,1.1,2.6,126.3,0.14,22.6,28.2,"16:49:52",1
"21/07/24","17:00",0.0,33.0,52.6,1002.9,123.1,1.2,2.8,103.0,0.02,22.1,28.3,"16:50:32",1
"21/07/24","17:10",0.0,32.7,53.4,1002.6,111.8,1.0,2.2,136.4,0.02,22.0,28.1,"17:09:36",1
"21/07/24","17:20",0.0,32.3,53.6,1002.2,136.3,1.2,2.6,141.9,0.02,21.7,28.2,"17:18:00",1
"21/07/24","17:30",0.0,32.8,58.9,1002.2,35.8,0.6,1.4,351.9,0.04,23.7,28.1,"17:27:36",1
"21/07/24","17:40",0.0,33.0,58.7,1002.4,345.2,0.8,2.0,348.3,0.06,23.9,28.1,"17:30:40",1
"21/07/24","17:50",0.0,33.2,52.5,1002.4,196.1,1.6,3.5,236.0,0.03,22.2,28.2,"17:42:08",1
"21/07/24","18:00",0.0,32.9,52.6,1002.9,194.1,1.8,3.3,218.8,0.02,22.0,28.2,"17:55:44",1
"21/07/24","18:10",0.0,32.3,53.6,1002.4,193.3,2.0,4.0,191.0,0.01,21.7,28.0,"18:03:28",1
"21/07/24","18:20",0.0,32.0,55.6,1002.4,158.7,1.7,4.2,133.7,0.01,22.0,28.1,"18:16:32",1
"21/07/24","18:30",0.0,31.4,57.6,1002.4,156.0,1.7,4.2,143.2,0.00,22.1,28.0,"18:21:04",1
"21/07/24","18:40",0.0,31.1,59.1,1002.4,145.0,1.2,2.2,134.4,0.00,22.2,27.9,"18:33:20",1
"21/07/24","18:50",0.0,30.7,60.4,1002.4,164.8,1.0,1.8,184.4,0.00,22.2,28.2,"18:45:28",1
"21/07/24","19:00",0.0,30.5,61.0,1002.4,327.2,0.2,1.0,10.7,0.00,22.2,28.1,"18:50:02",1
"21/07/24","19:10",0.0,30.1,62.5,1001.9,236.8,0.6,1.8,6.7,0.00,22.2,27.9,"19:00:32",1
"21/07/24","19:20",0.0,29.7,64.1,1001.9,283.4,0.3,1.1,352.5,0.00,22.2,28.0,"19:19:36",1
"21/07/24","19:30",0.0,29.4,65.6,1002.2,325.0,1.1,2.4,339.0,0.00,22.3,27.7,"19:24:16",1
"21/07/24","19:40",0.0,29.1,67.0,1001.9,333.5,1.7,2.7,346.9,0.00,22.4,27.7,"19:32:24",1
"21/07/24","19:50",0.0,28.8,68.4,1002.6,334.9,1.3,2.7,309.3,0.00,22.4,27.6,"19:42:56",1
"21/07/24","20:00",0.0,28.4,70.3,1003.1,330.5,1.3,2.9,322.3,0.00,22.5,27.7,"19:56:00",1
"21/07/24","20:10",0.0,28.2,71.6,1003.1,328.4,1.3,3.4,343.6,0.00,22.6,27.7,"20:07:36",1
"21/07/24","20:20",0.0,27.9,72.7,1003.6,325.9,1.3,2.2,325.9,0.00,22.6,27.6,"20:19:52",1
"21/07/24","20:30",0.0,27.8,73.4,1003.4,329.1,1.1,1.8,328.9,0.00,22.6,27.8,"20:22:16",1
"21/07/24","20:40",0.0,27.8,74.1,1004.1,336.4,1.0,2.0,341.2,0.00,22.8,27.8,"20:39:20",1
"21/07/24","20:50",0.0,27.8,74.2,1004.1,333.8,0.8,2.5,337.4,0.00,22.8,27.7,"20:46:32",1
"21/07/24","21:00",0.0,27.8,74.0,1003.8,328.8,1.2,3.5,347.7,0.00,22.8,27.5,"20:52:00",1
"21/07/24","21:10",0.0,27.8,73.9,1003.8,347.3,1.5,3.3,347.2,0.00,22.8,27.5,"21:03:28",1
"21/07/24","21:20",0.0,27.6,74.2,1003.8,345.3,1.1,2.9,335.5,0.00,22.6,27.7,"21:13:52",1
"21/07/24","21:30",0.0,27.4,74.7,1003.8,344.0,0.7,2.1,350.2,0.00,22.5,27.5,"21:24:48",1
"21/07/24","21:40",0.0,27.2,75.5,1004.1,351.8,0.7,1.6,353.1,0.00,22.5,27.4,"21:33:12",1
"21/07/24","21:50",0.0,26.8,76.2,1004.1,311.6,0.5,0.9,346.9,0.00,22.3,27.4,"21:46:56",1
"21/07/24","22:00",0.0,26.7,77.7,1004.1,340.7,1.1,1.8,342.3,0.00,22.5,27.3,"21:58:00",1
"21/07/24","22:10",0.0,26.5,79.0,1004.3,3.9,1.0,2.4,349.6,0.00,22.6,27.5,"22:00:48",1
"21/07/24","22:20",0.0,26.1,79.8,1004.5,342.8,1.1,1.8,31.8,0.00,22.4,27.4,"22:11:44",1
"21/07/24","22:30",0.0,25.9,80.8,1004.8,332.5,1.1,1.8,345.4,0.00,22.4,27.3,"22:27:36",1
"21/07/24","22:40",0.0,25.8,81.3,1004.3,278.6,0.7,1.7,275.2,0.00,22.4,27.2,"22:34:40",1
"21/07/24","22:50",0.0,25.7,81.6,1004.3,316.0,0.6,1.1,342.9,0.00,22.4,27.2,"22:46:08",1
"21/07/24","23:00",0.0,25.6,82.1,1004.3,349.0,0.8,1.2,339.6,0.00,22.4,27.3,"22:52:08",1
"21/07/24","23:10",0.0,25.3,82.7,1004.5,343.4,0.6,1.0,348.5,0.00,22.2,27.3,"23:00:40",1
"21/07/24","23:20",0.0,25.1,83.4,1004.8,334.5,0.7,1.1,351.4,0.00,22.1,27.0,"23:17:28",1
"21/07/24","23:30",0.0,24.9,84.0,1004.5,281.0,0.6,1.0,288.8,0.00,22.0,27.1,"23:27:44",1
"21/07/24","23:40",0.0,24.9,84.5,1004.8,294.8,0.6,1.6,327.0,0.00,22.1,27.3,"23:34:24",1
"21/07/24","23:50",0.0,25.0,84.9,1004.5,313.6,1.0,1.8,336.1,0.00,22.3,26.9,"23:44:08",1
"21/07/24","24:00",0.0,25.0,85.0,1004.8,295.4,0.6,1.3,331.3,0.00,22.3,27.0,"23:54:16",1
